Regional Weather Roundup
Issued by NWS

Home | Current Version | Previous Version | Text Only | Print | Product List | Glossary Off
Versions: 1 2 3 4 5 6 7 8 9 10 11 12 13 14 15 16 17 18 19 20 21 22 23 24 25 26 27 28 29 30 31 32 33 34 35 36 37 38 39 40 41 42 43 44 45 46 47 48 49 50

000
ASUS45 KBOI 050810
RWRID
WEATHER ROUNDUP FOR IDAHO
NATIONAL WEATHER SERVICE BOISE ID
200 AM MDT TUE MAY 05 2015

NOTE: "FAIR" INDICATES FEW OR NO CLOUDS BELOW 12000 FEET
WITH NO SIGNIFICANT WEATHER AND/OR OBSTRUCTIONS TO VISIBILITY

IDZ012-014-050900-
SOUTHWEST IDAHO


CITY           SKY/WX    TMP DP  RH WIND       PRES   REMARKS
BOISE          MOCLDY    66  38  35 VRB3      29.78R
CALDWELL       MOCLDY    63  41  45 W12       29.79R
MOUNTAIN HOME  CLOUDY    61  39  44 NE8       29.77F
$$

IDZ016-017-050900-
SOUTHCENTRAL IDAHO


CITY           SKY/WX    TMP DP  RH WIND       PRES   REMARKS
BURLEY         MOCLDY    56  39  53 S9        29.83F
JEROME         PTCLDY    57  38  48 SE8       29.85F
TWIN FALLS     PTCLDY    59  38  45 S13       29.84F
$$

IDZ019>023-050900-
SOUTHEAST IDAHO


CITY           SKY/WX    TMP DP  RH WIND       PRES   REMARKS
IDAHO FALLS    PTCLDY    53  42  66 CALM      29.89F
POCATELLO      CLEAR     54  41  61 E5        29.88F
REXBURG        MOCLDY    54  37  52 S5        29.89F
$$

IDZ006-010-011-018-031-032-050900-
CENTRAL IDAHO MOUNTAINS


CITY           SKY/WX    TMP DP  RH WIND       PRES   REMARKS
MCCALL         PTCLDY    49  35  58 S5        29.86S
HAILEY         PTCLDY    48  36  61 NW10G18   29.93S
STANLEY          N/A     37  28  70 CALM      29.97S
SALMON           N/A     46  34  61 CALM      29.83S
CHALLIS        CLEAR     48  31  51 SE5       29.88F
$$

IDZ002-004-006-007-026-050900-
NORTHERN IDAHO


CITY           SKY/WX    TMP DP  RH WIND       PRES   REMARKS
LEWISTON       MOCLDY    60  28  29 NW15G25   29.85R
LOWELL           N/A     53  46  77 N5        29.87R
COEUR D`ALENE  MOCLDY    55  32  41 S3        29.84R
MULLAN PASS    MOCLDY    45  24  43 CALM      29.91S
$$



USA.gov is the U.S. government's official web portal to all federal, state and local government web resources and services.